Theta_e
301 302 303 303 303 304 305 305 305 306 306 306 304 304 303 302 301 301 301 301 301 300 300 300 300 300 299 298 297 298 298 297 295 298 297 297 295 294 295 295 295 294 295
300 300 300 301 301 301 301 301 301 301 301 301 301 301 300 300 299 298 298 298 297 296 296 296 295 298 295 296 295 295 295 295 293 292 293 292 292 293 293 293 294 295 294
299 299 299 299 299 299 299 299 299 299 299 299 298 298 298 297 296 296 296 295 295 295 294 294 294 294 293 293 293 293 292 293 291 289 289 291 291 292 291 291 291 292 293
297 298 297 298 298 298 298 298 298 297 297 296 296 295 294 294 294 294 293 293 292 292 293 293 293 293 293 292 291 290 290 288 288 288 288 289 290 289 291 288 288 288 290
295 296 297 297 297 297 296 297 296 295 295 294 293 292 293 293 293 292 292 291 291 291 291 291 292 290 290 291 291 289 289 288 287 288 288 287 287 286 288 290 288 289 290
294 295 296 296 296 295 295 295 294 293 292 292 291 291 291 291 293 294 292 291 290 289 288 289 289 287 288 291 292 292 292 291 289 288 287 287 288 289 289 288 287 285 284
293 293 294 294 294 294 293 292 292 292 291 290 290 290 290 290 293 293 292 289 288 288 287 286 287 288 287 288 291 292 291 291 292 290 287 287 287 289 289 287 286 286 285
292 292 291 291 291 291 290 290 291 290 289 289 289 289 288 289 292 293 291 288 287 286 286 286 286 287 288 287 287 287 286 287 287 289 289 289 289 290 289 288 287 287 287
289 289 289 289 289 289 289 289 289 289 288 288 287 288 287 287 291 292 291 286 285 285 285 286 286 286 288 291 286 285 284 285 290 290 291 291 291 291 291 288 285 284 282
286 286 286 286 286 287 287 287 287 287 288 285 286 286 285 286 290 292 290 285 284 283 284 285 285 285 289 290 285 284 283 284 285 285 286 287 288 288 289 288 286 283 282
284 284 284 285 285 285 285 285 285 285 285 285 285 284 284 284 285 291 291 285 284 282 282 283 284 289 290 290 290 285 285 287 286 285 285 285 285 285 285 285 285 284 282
281 282 281 281 282 283 281 281 281 282 281 280 281 281 282 283 284 288 290 290 288 283 283 283 283 288 289 289 287 288 289 287 284 284 283 283 283 283 283 284 284 284 284
277 276 277 279 280 280 279 280 278 279 278 279 279 278 280 281 281 288 289 289 290 285 282 284 286 288 288 287 287 287 284 283 282 281 280 280 282 282 282 282 282 283 282
273 274 275 275 276 278 279 279 276 276 276 278 277 276 278 279 280 280 280 279 281 282 283 280 283 285 285 284 282 282 282 281 280 279 279 279 280 279 278 279 278 278 273
273 273 273 273 272 273 276 277 277 278 278 272 271 273 272 271 276 281 281 278 281 284 282 281 280 280 279 277 276 278 278 277 276 276 274 270 271 271 272 273 273 268 263
271 272 271 272 271 273 273 273 282 282 282 283 282 278 277 281 282 283 283 283 283 283 278 278 277 276 274 274 272 270 271 268 268 271 268 269 270 271 271 268 264 261 260
267 269 269 271 273 272 273 272 272 275 281 281 281 281 281 281 281 281 281 279 279 276 270 269 269 269 267 267 265 265 266 268 270 268 268 268 269 264 264 264 263 259 258
266 268 266 267 267 271 271 271 270 269 267 269 276 279 281 280 280 279 277 274 268 269 267 264 262 262 262 263 263 263 265 265 265 266 264 264 264 263 262 262 261 258 257
264 263 263 264 264 265 266 266 270 269 266 269 271 274 275 279 277 275 273 266 264 261 259 261 259 259 260 260 262 262 260 260 260 259 258 259 262 261 260 259 261 261 259
261 265 264 261 263 265 268 269 271 271 271 271 269 268 270 269 265 262 262 259 260 258 257 258 257 257 258 258 258 257 257 259 258 257 257 257 260 260 260 260 259 258 258
269 270 271 270 269 270 270 269 270 268 268 266 266 267 270 265 260 257 256 256 256 256 257 255 256 257 255 256 256 256 254 254 254 254 255 257 257 255 256 256 254 256 256
256 257 261 263 267 266 267 265 266 266 263 263 263 269 270 262 259 256 256 257 256 255 253 253 254 255 256 256 256 255 255 255 256 256 256 255 253 253 254 255 255 255 256
255 255 256 257 258 260 259 259 259 259 260 259 261 262 260 258 255 255 256 256 255 254 253 252 253 254 254 255 256 256 257 259 260 256 254 252 253 254 252 253 254 255 256
255 256 259 259 260 260 262 260 260 261 261 261 260 259 256 253 253 254 253 253 253 251 249 250 250 251 252 254 255 260 259 255 252 253 252 252 252 254 253 252 253 254 256
257 258 260 260 260 262 261 261 262 261 260 259 257 254 253 253 253 252 251 251 251 251 252 252 252 253 254 255 256 258 264 259 256 256 251 252 252 252 252 251 252 253 257
258 260 259 260 261 261 262 261 259 258 258 256 255 254 254 254 252 252 252 252 252 252 252 252 252 252 252 252 254 263 268 266 259 256 251 253 255 255 252 252 254 252 253
Wind_Speed
1 1 1 1 2 2 2 2 3 2 4 5 4 5 5 4 3 3 3 2 2 1 1 2 3 2 2 2 1 2 2 2 5 5 1 1 2 5 5 3 5 6 7
3 1 2 1 1 2 3 3 4 4 3 5 5 4 4 4 4 3 3 2 3 4 3 2 3 1 2 2 2 3 2 2 2 8 2 2 4 5 5 8 9 7 8
3 3 3 4 3 4 4 4 4 4 4 3 4 5 5 4 4 4 5 5 4 4 3 3 4 3 3 2 2 2 1 2 2 3 5 2 3 3 6 6 8 9 7
4 5 6 5 6 6 5 5 5 5 5 4 4 4 4 4 4 4 4 4 4 4 4 4 4 5 5 4 3 3 2 3 3 3 4 6 5 4 4 8 8 4 11
5 6 8 6 6 5 6 6 6 6 6 6 5 5 5 5 4 6 5 5 5 4 4 4 4 4 5 5 3 3 2 3 3 4 7 6 6 6 9 7 9 13 12
4 7 7 6 6 7 6 5 5 6 6 5 6 6 7 4 8 9 7 5 5 5 5 4 4 5 5 7 7 5 4 3 6 6 7 8 10 8 8 7 9 10 8
4 7 7 6 7 7 6 6 7 8 5 7 7 7 7 7 9 9 9 5 5 5 6 5 4 4 5 5 6 6 6 8 9 7 9 9 10 8 8 9 9 10 10
6 6 6 5 7 6 5 7 7 5 7 7 7 7 6 5 9 10 11 6 5 6 6 6 5 6 6 6 4 4 5 5 5 5 8 9 8 7 8 10 12 12 10
7 7 7 6 7 6 7 7 6 5 6 6 4 7 7 6 10 10 9 5 5 6 5 5 6 6 7 8 5 5 5 5 7 10 13 14 16 17 14 9 8 8 13
7 7 7 7 6 7 6 6 4 5 7 4 6 7 6 7 8 9 8 3 4 3 4 5 7 6 8 8 5 4 5 5 4 5 5 9 10 9 12 8 6 8 9
6 6 7 6 6 6 6 3 3 5 5 5 5 4 4 5 5 9 9 4 3 2 3 2 3 9 9 8 9 5 6 6 6 6 6 5 4 4 3 3 4 7 8
4 6 6 5 5 2 3 3 3 3 3 2 2 2 1 3 4 6 7 8 8 4 4 3 3 7 8 9 8 9 11 11 3 4 4 4 4 4 2 5 7 7 8
5 4 4 6 4 3 2 2 2 1 2 3 3 2 2 1 1 4 4 3 4 3 1 2 5 7 8 6 9 12 6 1 2 3 4 4 4 4 5 6 6 6 8
7 4 1 2 4 5 3 2 1 1 1 1 1 1 1 2 2 3 3 3 3 3 2 1 3 6 8 9 3 3 3 2 3 4 4 4 4 3 4 4 5 6 3
5 4 4 1 2 2 3 4 3 2 1 2 2 3 3 2 1 2 1 1 0 1 2 1 1 3 1 2 2 3 3 3 3 3 3 3 3 3 3 3 3 3 2
3 3 3 2 4 2 4 3 9 7 7 6 6 4 2 3 2 2 2 2 3 4 2 1 1 2 2 2 3 3 2 3 2 2 2 2 3 5 5 3 2 2 3
2 1 2 3 1 2 3 4 4 4 7 5 5 6 4 1 5 3 4 5 7 4 3 2 3 3 1 2 2 1 2 3 4 3 2 3 3 2 3 3 3 2 3
2 3 2 2 1 2 2 3 2 3 1 3 6 4 8 6 5 9 5 6 4 5 3 3 2 2 2 2 3 2 2 4 3 3 3 3 3 2 2 3 3 2 3
2 2 2 1 1 2 2 2 2 1 3 2 2 5 7 12 12 10 11 3 3 3 2 3 2 2 1 1 2 2 3 2 3 3 3 3 3 2 3 3 4 5 4
0 1 2 1 1 0 2 2 1 1 2 1 1 1 1 4 3 3 3 3 4 2 2 3 1 2 2 2 2 3 2 3 4 3 3 3 3 2 3 4 4 3 3
2 1 3 1 1 1 1 1 1 2 2 1 1 1 6 5 4 3 2 3 2 2 2 2 3 3 2 2 2 2 3 3 2 3 3 3 4 4 3 2 3 3 3
1 2 1 1 0 1 0 1 1 2 3 2 1 4 13 5 4 3 2 1 2 3 1 2 2 1 0 2 2 2 2 2 3 3 4 4 3 3 3 2 3 2 3
2 1 1 0 1 1 1 1 3 3 3 3 3 5 4 4 3 2 2 3 3 3 2 2 1 2 3 3 2 1 2 3 3 2 3 3 3 3 3 2 3 3 3
2 2 2 2 2 2 3 3 3 4 4 4 4 4 4 2 3 3 2 1 2 1 1 2 2 3 3 3 3 4 2 2 1 1 1 1 3 4 3 3 2 3 2
2 2 2 3 3 3 3 3 4 4 4 4 4 3 2 2 3 2 1 1 1 2 2 2 2 3 4 6 6 5 3 4 4 3 3 3 4 5 3 2 3 3 4
1 2 2 2 3 3 3 4 4 4 4 4 4 3 3 3 2 2 1 2 2 2 3 2 3 5 5 4 5 6 8 3 4 5 3 4 4 4 3 4 7 4 4
Wind_Direction
7 344 75 95 90 102 138 145 147 115 137 134 149 151 157 156 143 139 159 174 198 213 165 193 221 224 245 256 242 237 229 193 255 295 275 289 318 323 320 295 304 301 303
265 258 268 267 143 154 163 162 163 166 159 168 173 170 167 171 170 173 189 179 195 214 230 247 258 259 253 250 251 252 236 229 217 284 300 323 300 317 309 317 317 309 305
275 254 248 247 224 220 208 200 188 173 181 183 175 187 191 193 185 191 193 202 205 204 201 212 242 229 246 228 230 247 262 293 273 268 290 278 281 316 312 308 304 302 300
263 257 256 242 237 236 219 213 207 201 196 200 206 208 207 205 208 205 202 203 205 203 206 208 216 213 223 217 207 222 257 283 284 279 282 296 300 295 292 304 308 307 312
253 255 256 252 239 245 251 236 221 212 211 206 200 210 211 203 204 203 209 216 213 210 210 215 216 212 196 189 178 212 229 269 284 293 296 297 303 313 313 315 307 317 312
260 257 256 250 240 239 235 235 254 254 236 220 221 212 213 213 208 205 193 204 205 210 218 220 223 205 207 207 196 209 234 270 281 292 290 287 297 304 309 312 313 320 322
282 282 271 261 247 241 240 225 225 226 213 232 230 219 225 223 206 205 188 197 204 212 212 216 218 215 205 208 227 230 249 261 265 274 278 277 290 300 309 304 303 299 290
300 289 288 283 267 266 240 234 242 232 222 221 226 222 228 230 209 206 194 198 208 216 221 223 217 215 211 197 208 237 248 260 259 258 263 275 280 287 285 292 293 288 284
318 315 311 300 280 269 250 242 239 231 232 224 218 221 221 233 216 209 182 191 216 232 232 231 220 219 219 212 205 237 258 264 262 280 284 292 294 291 288 295 290 294 303
328 316 310 307 291 277 263 262 242 232 243 221 234 221 217 225 218 206 186 177 213 221 243 245 228 217 229 229 225 246 258 252 271 272 271 278 279 275 272 268 287 288 298
315 312 314 314 308 296 296 269 254 253 252 246 255 248 224 208 209 206 196 181 197 197 211 223 226 238 239 245 251 242 244 278 288 283 282 280 257 257 253 251 261 284 289
304 308 306 300 300 300 273 280 254 215 192 213 182 180 194 204 210 223 217 212 209 192 205 210 241 250 250 255 271 270 279 294 287 277 279 289 287 282 275 293 287 280 274
318 313 315 318 325 326 349 321 318 267 169 196 181 180 191 164 169 193 194 211 234 174 168 228 252 262 279 297 308 302 307 345 307 299 293 291 292 301 290 289 284 282 281
300 298 314 333 341 350 6 38 72 358 330 152 154 171 81 69 70 59 58 48 31 33 348 333 306 310 305 288 305 39 36 9 330 306 296 302 299 297 289 302 313 306 318
306 313 331 46 96 49 32 6 20 347 115 186 187 152 133 127 181 111 114 179 246 282 311 356 331 295 339 31 12 12 357 4 341 321 318 315 310 318 309 331 316 358 264
302 321 323 8 324 118 119 71 30 30 32 54 94 103 16 124 159 131 75 330 295 279 91 216 228 72 63 23 13 353 349 342 302 318 312 310 324 333 322 326 313 270 267
143 8 332 9 34 334 333 119 123 357 32 54 65 93 94 74 65 55 76 57 44 31 88 56 75 62 51 37 8 355 328 322 320 346 338 337 336 298 324 311 305 295 303
359 30 76 325 47 61 23 37 40 120 20 322 347 80 79 54 57 63 65 61 38 33 52 64 68 62 44 32 15 8 332 341 346 343 344 329 321 294 339 328 300 284 282
65 35 9 1 2 81 75 81 108 76 107 287 341 37 14 87 67 54 50 79 97 70 54 65 46 44 26 16 16 17 11 336 324 341 334 316 328 335 300 281 316 332 317
95 172 134 181 306 168 151 149 114 110 109 131 74 34 356 51 60 36 37 63 69 56 89 90 60 72 50 14 22 41 7 0 357 339 318 319 313 299 343 332 319 304 291
284 247 236 249 246 245 196 181 165 134 117 129 97 232 116 112 104 84 63 47 93 83 63 61 49 48 19 22 29 33 39 350 313 309 326 327 352 345 325 299 311 302 294
334 320 324 231 333 286 205 89 118 122 117 117 347 83 99 84 87 77 66 72 47 53 50 101 69 50 332 56 19 23 16 338 337 344 340 341 330 328 320 337 335 318 325
232 241 352 8 181 148 91 115 123 122 118 93 92 97 91 85 89 114 92 54 54 45 354 65 72 12 8 18 356 36 26 342 322 301 312 331 342 345 346 324 324 336 354
211 196 192 203 180 165 144 126 103 108 110 109 98 93 100 110 111 99 98 99 79 36 20 46 45 38 1 356 352 355 350 306 325 328 12 30 355 347 358 350 331 323 338
218 204 181 172 160 143 125 114 108 104 103 106 110 106 106 100 91 86 93 96 98 72 32 22 20 25 19 6 353 339 336 41 41 24 41 57 42 9 356 6 346 346 1
168 152 134 115 106 105 111 112 105 106 113 119 121 118 124 123 147 136 125 88 65 40 24 5 8 14 0 337 321 341 351 103 58 46 60 55 40 10 18 20 15 9 359